Location: Umburanas
(4.5000°S, 37.9667°W)
Time: 18:54:37
(UTC+00:00)

Cosmos 1782 - Pass Details

Date: 19 November 2019
Orbit: 535 x 554 km, 82.5° (Epoch: 12 December)

Event Time Altitude Azimuth Distance (km) Brightness Sun altitude
Rises 20:39:22 0° 169° (S) 2,728 6.5 -3.7°
Reaches altitude 10° 20:41:41 10° 159° (SSE) 1,833 5.5 -4.2°
Maximum altitude 20:45:20 33° 94° (E) 946 3.6 -5.1°
Drops below altitude 10° 20:48:58 10° 30° (NNE) 1,824 5.0 -5.9°
Sets 20:51:16 0° 20° (NNE) 2,714 6.0 -6.5°
